Lexington Weather

Lexington, Massachusetts, USA

49°F
12/8/2022 2:52pm 
  • Lexington Conditions: Clear
  • Temperature: 48.6°F / 9.2°CColder 1.4°F than last hour.
  • Dew Point: 35.2°FDecreased 0.2°Fsince last hour.
  • Relative Humidity: 60%Increased 3.0% since last hour.
  • Wind: Wind from N N Calm, 10-min avg: 2 mph, gust: 8 mph
  • Barometer: 30.07 in Steady
  • Visibility: 10 miles
  • Rain Today: 0.00 in
  •   

Warning: Undefined variable $rc in /homepages/6/d276339138/htdocs/weather/20190804/ssi/nwsProduct.php on line 323

Warning: Undefined variable $rc in /homepages/6/d276339138/htdocs/weather/20190804/ssi/nwsProduct.php on line 325

Warning: Undefined variable $rc in /homepages/6/d276339138/htdocs/weather/20190804/ssi/nwsProduct.php on line 323

Warning: Undefined variable $rc in /homepages/6/d276339138/htdocs/weather/20190804/ssi/nwsProduct.php on line 325

Warning: Undefined variable $rc in /homepages/6/d276339138/htdocs/weather/20190804/ssi/nwsProduct.php on line 323

Warning: Undefined variable $rc in /homepages/6/d276339138/htdocs/weather/20190804/ssi/nwsProduct.php on line 325

Warning: Undefined variable $rc in /homepages/6/d276339138/htdocs/weather/20190804/ssi/nwsProduct.php on line 323

Warning: Undefined variable $rc in /homepages/6/d276339138/htdocs/weather/20190804/ssi/nwsProduct.php on line 325

Warning: Undefined variable $rc in /homepages/6/d276339138/htdocs/weather/20190804/ssi/nwsProduct.php on line 323

Warning: Undefined variable $rc in /homepages/6/d276339138/htdocs/weather/20190804/ssi/nwsProduct.php on line 325

Warning: Undefined variable $rc in /homepages/6/d276339138/htdocs/weather/20190804/ssi/nwsProduct.php on line 323

Warning: Undefined variable $rc in /homepages/6/d276339138/htdocs/weather/20190804/ssi/nwsProduct.php on line 325

Warning: Undefined variable $rc in /homepages/6/d276339138/htdocs/weather/20190804/ssi/nwsProduct.php on line 323

Warning: Undefined variable $rc in /homepages/6/d276339138/htdocs/weather/20190804/ssi/nwsProduct.php on line 325

Regional Weather Roundup
for Boston, MA

        
000
ASUS41 KBOX 031710
RWRBOX

REGIONAL WEATHER ROUNDUP
NATIONAL WEATHER SERVICE BOSTON/NORTON MA
1200 PM EST SAT DEC 03 2022

NOTE:  "FAIR" INDICATES FEW OR NO CLOUDS BELOW 12,000 FEET WITH NO 
SIGNIFICANT WEATHER AND/OR OBSTRUCTIONS TO VISIBILITY.

MAZALL-031800-
EASTERN MASSACHUSETTS
  
CITY           SKY/WX    TMP DP  RH WIND       PRES   REMARKS
BOSTON         LGT RAIN  58  51  78 S28G37    30.00F                  
BEVERLY        LGT RAIN  57  50  77 S17G25    29.99F                  
LAWRENCE       LGT RAIN  57  51  80 S13G22    29.98F                  
BEDFORD        LGT RAIN  57  52  83 S21G29    29.98F                  
NORWOOD        LGT RAIN  59  52  77 S17G30    30.01F                  
MARSHFIELD       N/A     59  52  77 S17G31    30.05F                  
PLYMOUTH       CLOUDY    58  52  80 SW21G40   30.07F                  
TAUNTON          N/A    N/A N/A N/A MISG      30.07F                  
NEW BEDFORD    LGT RAIN  58  55  90 S21G33    30.09F                  
$$

MAZALL-031800-
CAPE COD AND THE ISLANDS
  
CITY           SKY/WX    TMP DP  RH WIND       PRES   REMARKS
FALMOUTH       CLOUDY    59  50  72 S29G40    30.12F                  
HYANNIS        CLOUDY    54  50  86 S14G24    30.11F                  
CHATHAM        LGT RAIN  56  50  80 S13G24    30.15F                  
PROVINCETOWN   CLOUDY    55  52  89 S20G30    30.10F                  
NANTUCKET      CLOUDY    58  53  84 S20       30.17F                  
MARTHAS VNYRD  CLOUDY    60  53  77 S28G37    30.13F                  
$$
 
MAZALL-031800-
CENTRAL AND WESTERN MASSACHUSETTS
  
CITY           SKY/WX    TMP DP  RH WIND       PRES   REMARKS
WORCESTER      LGT RAIN  54  51  90 SW22G36   29.97F FOG              
FITCHBURG      LGT RAIN  54  49  83 S14G20    29.96F                  
ORANGE         LGT RAIN  54  50  86 S17G26    29.94F                  
SPRINGFIELD    LGT RAIN  54  54 100 SW20G26   29.95F FOG              
WESTFIELD      LGT RAIN  54  52  93 S12       29.95F FOG              
NORTH ADAMS    RAIN      52  47  83 CALM      29.90F                  
PITTSFIELD     LGT RAIN  50  47  89 SW14G21   29.91F                  
$$
 
RIZALL-031800-
RHODE ISLAND
  
CITY           SKY/WX    TMP DP  RH WIND       PRES   REMARKS
PROVIDENCE     LGT RAIN  56  52  86 S23G35    30.07F FOG              
NEWPORT        LGT RAIN  56  51  84 S15G30    30.09F                  
BLOCK ISLAND   LGT RAIN  57  51  80 SW24G35   30.10F                  
SMITHFIELD     LGT RAIN  55  53  93 SW13G26   30.03F                  
WESTERLY       LGT RAIN  57  52  83 S20G31    30.08F                  
$$
 
CTZALL-031800-
CONNECTICUT
  
CITY           SKY/WX    TMP DP  RH WIND       PRES   REMARKS
BRADLEY INTL   LGT RAIN  56  52  86 S20G28    29.98F FOG              
HARTFORD       RAIN      57  53  86 S16G28    29.99F FOG              
BRIDGEPORT     LGT RAIN  55  53  93 SW28G35   30.01F FOG              
DANBURY        LGT RAIN  56  51  84 SW10      30.00F                  
GROTON         RAIN      58  53  84 SW31G40   30.05F                  
NEW HAVEN      LGT RAIN  57  54  89 S23G37    30.03F FOG              
CHESTER        RAIN      55  55 100 S22G31    30.04F                  
MERIDEN        LGT RAIN  56  52  86 S18G25    30.01F FOG              
WILLIMANTIC    RAIN      55  53  93 S15G32    30.02F FOG              
OXFORD         RAIN      54  52  94 S16G25    29.99F FOG              
$$

MEZ002-015-021-024-NHZ003-005-008-011-012-014-VTZ005-008-031800-
NORTHERN NEW ENGLAND
  
CITY           SKY/WX    TMP DP  RH WIND       PRES   REMARKS
PORTLAND ME    LGT RAIN  52  50  93 S16G30    29.96F FOG              
BANGOR ME      LGT RAIN  52  49  89 S24G39    29.98F                  
CONCORD NH     LGT RAIN  50  50 100 S9        29.91F FOG              
MANCHESTER NH  LGT RAIN  56  51  84 S17G25    29.93F                  
NASHUA NH      LGT RAIN  55  55 100 VRB6      29.94F                  
PORTSMOUTH NH  LGT RAIN  56  50  81 S15G26    29.95F                  
JAFFREY NH     RAIN      54  50  86 S17G26    29.93F FOG              
KEENE NH       RAIN      53  51  93 S13         N/A                   
BURLINGTON VT  LGT RAIN  45  43  93 S18G26    29.79F                  
MT. WASHINGTON FRZ RAIN  30  30 100 SW43G62     N/A  VSB 0   WCI  13  
$$

NYZ052-076-031800-
EASTERN NEW YORK
  
CITY           SKY/WX    TMP DP  RH WIND       PRES   REMARKS
ALBANY         DRIZZLE   48  45  89 S14G26    29.89F                  
NEW YORK CITY  LGT RAIN  57  52  83 S20G31    30.02F FOG              
$$
 
ANZALL-031800-
MARINE OBSERVATIONS
  
STATION/POSITION TIME  TEMP    WIND        PRES    VSBY  WAVE
                       AIR SEA DIR/SP/G                  HT/PER
                 (UTC) (F)     (DEG/KT/KT) (MB)    (MI)  (FT/S)
BOSTON BUOY      1650      51  190/ 25/ 33 1017.8F         4/ 5
BUZZARDS BAY     1600   57     200/ 32/ 35 1021.5F
NANTUCKET SOUND  1650   55 49  190/ 19/ 23 1020.6F         3/ 4
MASS BAY-STELLWA 1504   55 50  190/ 23/ 27 1019.2F  1 7/8  4/ 5
ISLE OF SHOALS   1600   55     190/ 31/ 33 1016.2F
S OF BLOCK IS    1656      56                N/A           8/ 7
$$

......................KEY.........................
  SKY/WX - SKY CONDITION/PRESENT WEATHER
  TMP    - TEMPERATURE IN FAHRENHEIT
  DWPT   - DEWPOINT IN FAHRENHEIT
  RH     - RELATIVE HUMIDITY IN PERCENT
  WIND   - DIRECTION AND SPEED IN MPH
  PRES   - MEAN SEA LEVEL PRESSURE IN INCHES OF HG
  WCI    - WIND CHILL INDEX
  VSB    - VISIBILITY IN MILES
  HX     - HEAT INDEX
  TC     - TEMPERATURE IN CELSIUS
  VRB    - VARIABLE WIND DIRECTION
  N/A    - NOT AVAILABLE
  
      

Other recent Regional Weather Roundups

Thu Dec 8, 2:10pm

Thu Dec 8, 1:10pm

Thu Dec 8, 12:10pm

Thu Dec 8, 11:10am

Thu Dec 8, 10:10am

Thu Dec 8, 9:10am

Thu Dec 8, 8:10am

Thu Dec 8, 7:10am

Thu Dec 8, 6:10am

Thu Dec 8, 5:10am

Thu Dec 8, 4:10am

Thu Dec 8, 3:10am

Thu Dec 8, 2:10am

Thu Dec 8, 1:10am

Thu Dec 8, 12:10am

Wed Dec 7, 11:10pm

Wed Dec 7, 10:10pm

Wed Dec 7, 9:10pm

Wed Dec 7, 8:10pm

Wed Dec 7, 7:10pm

Wed Dec 7, 6:10pm

Wed Dec 7, 5:10pm

Wed Dec 7, 4:10pm

Wed Dec 7, 3:10pm

Wed Dec 7, 2:10pm

Wed Dec 7, 1:10pm

Wed Dec 7, 12:10pm

Wed Dec 7, 11:10am

Wed Dec 7, 10:10am

Wed Dec 7, 9:10am

Wed Dec 7, 8:10am

Wed Dec 7, 7:10am

Wed Dec 7, 6:10am

Wed Dec 7, 5:10am

Wed Dec 7, 4:10am

Wed Dec 7, 3:10am

Wed Dec 7, 2:10am

Wed Dec 7, 1:10am

Wed Dec 7, 12:10am

Tue Dec 6, 11:10pm

Tue Dec 6, 10:10pm

Tue Dec 6, 9:10pm

Tue Dec 6, 8:10pm

Tue Dec 6, 7:10pm

Tue Dec 6, 6:10pm

Tue Dec 6, 5:10pm

Tue Dec 6, 4:10pm

Tue Dec 6, 3:10pm

Tue Dec 6, 2:10pm

Tue Dec 6, 1:10pm

Tue Dec 6, 12:10pm

Tue Dec 6, 11:10am

Tue Dec 6, 10:10am

Tue Dec 6, 9:10am

Tue Dec 6, 8:10am

Tue Dec 6, 7:10am

Tue Dec 6, 6:10am

Tue Dec 6, 5:10am

Tue Dec 6, 4:10am

Tue Dec 6, 3:10am

Tue Dec 6, 2:10am

Tue Dec 6, 1:10am

Tue Dec 6, 12:10am

Mon Dec 5, 11:10pm

Mon Dec 5, 10:10pm

Mon Dec 5, 9:10pm

Mon Dec 5, 8:10pm

Mon Dec 5, 7:10pm

Mon Dec 5, 6:10pm

Mon Dec 5, 5:10pm

Mon Dec 5, 4:10pm

Mon Dec 5, 3:10pm

Mon Dec 5, 2:10pm

Mon Dec 5, 1:10pm

Mon Dec 5, 12:10pm

Mon Dec 5, 11:10am

Mon Dec 5, 10:10am

Mon Dec 5, 9:10am

Mon Dec 5, 8:10am

Mon Dec 5, 7:10am

Mon Dec 5, 6:10am

Mon Dec 5, 5:10am

Mon Dec 5, 4:10am

Mon Dec 5, 3:10am

Mon Dec 5, 2:10am

Mon Dec 5, 1:10am

Mon Dec 5, 12:10am

Sun Dec 4, 11:10pm

Sun Dec 4, 10:10pm

Sun Dec 4, 9:10pm

Sun Dec 4, 8:10pm

Sun Dec 4, 7:10pm

Sun Dec 4, 6:10pm

Sun Dec 4, 5:10pm

Sun Dec 4, 4:10pm

Sun Dec 4, 3:10pm

Sun Dec 4, 2:10pm

Sun Dec 4, 1:10pm

Sun Dec 4, 12:10pm

Sun Dec 4, 11:10am

Sun Dec 4, 10:10am

Sun Dec 4, 9:10am

Sun Dec 4, 8:10am

Sun Dec 4, 7:10am

Sun Dec 4, 6:10am

Sun Dec 4, 5:10am

Sun Dec 4, 4:10am

Sun Dec 4, 3:10am

Sun Dec 4, 2:10am

Sun Dec 4, 1:10am

Sun Dec 4, 12:10am

Sat Dec 3, 11:10pm

Sat Dec 3, 10:10pm

Sat Dec 3, 9:10pm

Sat Dec 3, 8:10pm

Sat Dec 3, 7:10pm

Sat Dec 3, 6:10pm

Sat Dec 3, 5:10pm

Sat Dec 3, 4:10pm

Sat Dec 3, 3:10pm

Sat Dec 3, 2:10pm

Sat Dec 3, 1:10pm

Sat Dec 3, 11:10am

Sat Dec 3, 10:10am

Sat Dec 3, 9:10am

Sat Dec 3, 8:10am

Sat Dec 3, 7:10am

Sat Dec 3, 6:10am

Sat Dec 3, 5:10am

Sat Dec 3, 4:10am

Sat Dec 3, 3:10am

Sat Dec 3, 2:10am

Sat Dec 3, 1:10am

Sat Dec 3, 12:10am

Fri Dec 2, 11:10pm

Fri Dec 2, 10:10pm

Fri Dec 2, 9:10pm

Fri Dec 2, 8:10pm

Fri Dec 2, 7:10pm

Fri Dec 2, 6:10pm

Fri Dec 2, 5:10pm

Fri Dec 2, 4:10pm

Fri Dec 2, 3:10pm

Fri Dec 2, 2:10pm

Fri Dec 2, 1:10pm

Fri Dec 2, 12:10pm

Fri Dec 2, 11:10am

Fri Dec 2, 10:10am

Fri Dec 2, 9:10am

Fri Dec 2, 8:10am

Fri Dec 2, 7:10am

Fri Dec 2, 6:10am

Fri Dec 2, 5:10am

Fri Dec 2, 4:10am

Fri Dec 2, 3:10am

Fri Dec 2, 2:10am

Fri Dec 2, 1:10am

Fri Dec 2, 12:10am

Thu Dec 1, 11:10pm

Thu Dec 1, 10:10pm

Thu Dec 1, 9:10pm

Thu Dec 1, 8:10pm

Thu Dec 1, 7:10pm

Thu Dec 1, 6:10pm

Thu Dec 1, 5:10pm

Thu Dec 1, 4:10pm

Thu Dec 1, 3:10pm

Meta data:

ID: 37a383c6-0598-47b4-b13b-9ed8d3273c2e
Link: https://api.weather.gov/products/37a383c6-0598-47b4-b13b-9ed8d3273c2e